Powrót do katalogu

EKRAN 2 DEB

AktywnyGEO
NORAD 11581·DEBRIS·🇷🇺 Russia

Wystrzelony Sep 20, 1977 z Baikonur Cosmodrome

Loading…

TLE

ŚwieżeSource: Space-Track

Epoka: Sep 14, 2026, 14:13 UTC

1 11581U 77092H   26257.59304109 -.00000260  00000-0  00000-0 0  9993
2 11581   3.9164 272.7926 0019245 270.9045 113.5277  1.00375189105268

Śledź EKRAN 2 DEB w czasie rzeczywistym z AllMySat

Download on the App Store